Location: ???????
(55.4362°N, 38.1183°E)
Time: 21:07:42
(UTC+00:00)

N. Korean satellite - Pass Details

Date: 08 October 2021
Orbit: 450 x 495 km, 97.3° (Epoch: 15 October)

Event Time Altitude Azimuth Distance (km) Brightness Sun altitude
Rises 02:04:29 0° 23° (NNE) 2,568 10.7 -14.8°
Reaches altitude 10° 02:06:51 10° 37° (NE) 1,689 10.0 -14.5°
Maximum altitude 02:09:52 24° 93° (E) 1,061 9.2 -14.1°
Drops below altitude 10° 02:12:52 10° 149° (SSE) 1,691 9.6 -13.7°
Sets 02:15:14 0° 164° (SSE) 2,571 10.3 -13.3°
